Time,TemperatureF,DewpointF,PressureIn,WindDirection,WindDirectionDegrees,WindSpeedMPH,WindSpeedGustMPH,Humidity,HourlyPrecipIn,Conditions,Clouds,dailyrainin,SoftwareType,DateUTC
2013-01-16 00:00:00,35.0,23.0,-100.00,North,-999,-999.0,-999.0,60,0.00,,,-99.99,,2013-01-16 08:00:00,
2013-01-16 01:00:00,34.0,25.0,-100.00,North,-999,-999.0,-999.0,68,0.00,,,-99.99,,2013-01-16 09:00:00,
2013-01-16 02:00:00,34.0,24.0,-100.00,North,-999,-999.0,-999.0,67,0.00,,,-99.99,,2013-01-16 10:00:00,
2013-01-16 03:00:00,33.0,24.0,-100.00,North,-999,-999.0,-999.0,70,0.00,,,-99.99,,2013-01-16 11:00:00,
2013-01-16 04:00:00,34.0,24.0,-100.00,North,-999,-999.0,-999.0,66,0.00,,,-99.99,,2013-01-16 12:00:00,
2013-01-16 05:00:00,34.0,23.0,-100.00,North,-999,-999.0,-999.0,65,0.00,,,-99.99,,2013-01-16 13:00:00,
2013-01-16 06:00:00,35.0,23.0,-100.00,North,-999,-999.0,-999.0,60,0.00,,,-99.99,,2013-01-16 14:00:00,
2013-01-16 07:00:00,35.0,23.0,-100.00,North,-999,-999.0,-999.0,60,0.00,,,-99.99,,2013-01-16 15:00:00,
2013-01-16 08:00:00,34.0,22.0,-100.00,North,-999,-999.0,-999.0,61,0.00,,,-99.99,,2013-01-16 16:00:00,
2013-01-16 09:00:00,34.0,24.0,-100.00,North,-999,-999.0,-999.0,66,0.00,,,-99.99,,2013-01-16 17:00:00,
2013-01-16 10:00:00,36.0,26.0,-100.00,North,-999,-999.0,-999.0,67,0.00,,,-99.99,,2013-01-16 18:00:00,
2013-01-16 12:00:00,27.0,17.0,-100.00,North,-999,-999.0,-999.0,65,0.00,,,-99.99,,2013-01-16 20:00:00,
2013-01-16 13:00:00,27.0,17.0,-100.00,North,-999,-999.0,-999.0,65,0.00,,,-99.99,,2013-01-16 21:00:00,
2013-01-16 16:00:00,39.0,32.0,-100.00,North,-999,-999.0,-999.0,75,0.00,,,-99.99,,2013-01-17 00:00:00,
2013-01-16 17:00:00,37.0,32.0,-100.00,North,-999,-999.0,-999.0,81,0.00,,,-99.99,,2013-01-17 01:00:00,
2013-01-16 18:00:00,36.0,32.0,-100.00,North,-999,-999.0,-999.0,84,0.00,,,-99.99,,2013-01-17 02:00:00,
2013-01-16 19:00:00,35.0,31.0,-100.00,North,-999,-999.0,-999.0,84,0.00,,,-99.99,,2013-01-17 03:00:00,
2013-01-16 20:00:00,26.0,20.0,-100.00,North,-999,-999.0,-999.0,79,0.00,,,-99.99,,2013-01-17 04:00:00,
2013-01-16 21:00:00,22.0,18.0,-100.00,North,-999,-999.0,-999.0,85,0.00,,,-99.99,,2013-01-17 05:00:00,
2013-01-16 22:00:00,19.0,16.0,-100.00,North,-999,-999.0,-999.0,89,0.00,,,-99.99,,2013-01-17 06:00:00,
2013-01-16 23:00:00,17.0,15.0,-100.00,North,-999,-999.0,-999.0,93,0.00,,,-99.99,,2013-01-17 07:00:00,